sat.trackr.live / text

‹ back to catalog

TOMORROW-S5

NORAD 63234 · 2025-052AA

PAYLOAD ACTIVE UNKNOWN

§ Identity

Operator
Country
US
Launch date
2025-03-15
Launch site
AFWTR
Launch vehicle
Mass (kg)
RCS (m²)

External: N2YO · Heavens-Above · Gunter

§ Orbital elements

Epoch: 2026-09-22T15:39:26.981568Z

Period
94.54 min
Inclination
97.3843°
Eccentricity
0.0007126
Mean motion
15.23167831 rev/d
Perigee alt
491.4 km
Apogee alt
501.2 km
Semi-major
6,874.4 km
B*
1.3426e-4
RAAN
156.7933°
Arg perigee
155.4746°
Mean anomaly
204.6831°
Rev number
8,467

§ Raw data

TOMORROW-S51 63234U 25052AA  26265.65239562  .00003104  00000+0  13426-3 0  99972 63234  97.3843 156.7933 0007126 155.4746 204.6831 15.23167831 84672

JSON: /api/v1/satellites/63234 · /tle

For live sub-satellite position, see the globe view (requires WebGL).

§ Visibility from observer

Set your observer location to see the next 7 days of passes ≥ 10°. The values pass through the URL so the page stays shareable.

No JS? Fill the form by hand. The geolocation button needs JavaScript.